DW3839 Weather Reports


time (UTC)temp
C
wind
direction
speed
KPH
gust
KPH
rain 1hr
cm
rain 24hr
cm
rain mn
cm
humidity
%
barometer
mb
20260504160120 21 47 4.8 14.5 0.00 0.00 0.00 45 1013.0
20260504151119 19 199 9.7 19.3 0.00 0.00 0.00 42 1013.9
20260504150507 19 236 8.0 17.7 0.00 0.00 0.00 50 1013.9
20260504150108 19 210 1.6 16.1 0.00 0.00 0.00 47 1013.9
20260504141115 17 219 6.4 17.7 0.00 0.00 0.00 46 1013.8
20260504140505 16 202 8.0 17.7 0.00 0.00 0.00 47 1013.8
20260504140132 16 190 8.0 17.7 0.00 0.00 0.00 51 1013.8
20260504130504 13 215 1.6 12.9 0.00 0.00 0.00 61 1014.4
20260504120120 11 360 3.2 9.7 0.00 0.00 0.00 69 1014.6
20260504110521 8 360 1.6 9.7 0.00 0.00 0.00 79 1014.8
20260504110118 8 360 3.2 8.0 0.00 0.00 0.00 79 1014.8
20260504100515 7 360 1.6 6.4 0.00 0.00 0.00 79 1014.6
20260504100115 7 360 1.6 6.4 0.00 0.00 0.00 81 1014.6
20260504090127 8 360 1.6 6.4 0.00 0.00 0.00 79 1015.0
20260504081619 8 360 0.0 3.2 0.00 0.00 0.00 79 1015.1
20260504081118 8 360 0.0 3.2 0.00 0.00 0.00 80 1015.1
20260504080507 8 360 0.0 1.6 0.00 0.00 0.00 82 1015.1
20260504080106 8 360 0.0 3.2 0.00 0.00 0.00 81 1015.1
20260504060115 6 360 0.0 0.0 0.00 0.00 0.00 88 1015.6
20260504050516 5 360 0.0 3.2 0.00 0.00 0.00 85 1015.6
20260504050141 5 360 0.0 3.2 0.00 0.00 0.00 86 1015.6
20260504045614 5 360 0.0 0.0 0.00 0.00 0.00 86 1015.6
20260504045113 5 360 0.0 0.0 0.00 0.00 0.00 86 1015.6
20260504044619 5 360 0.0 0.0 0.00 0.00 0.00 85 1015.6
20260504044119 5 360 0.0 4.8 0.00 0.00 0.00 84 1015.6
20260504043621 5 360 0.0 4.8 0.00 0.00 0.00 85 1015.6
20260504043120 5 360 0.0 3.2 0.00 0.00 0.00 85 1015.6
20260504042623 5 360 0.0 3.2 0.00 0.00 0.00 85 1015.5
20260504042009 6 360 0.0 6.4 0.00 0.00 0.00 85 1015.5
20260504041608 6 360 0.0 6.4 0.00 0.00 0.00 84 1015.5
20260504041110 6 360 0.0 4.8 0.00 0.00 0.00 84 1015.4
20260504040522 6 360 0.0 4.8 0.00 0.00 0.00 83 1015.4
20260504040007 6 360 0.0 6.4 0.00 0.00 0.00 82 1015.4
20260504035602 6 360 3.2 8.0 0.00 0.00 0.00 83 1015.6
20260504035105 6 360 1.6 8.0 0.00 0.00 0.00 83 1015.6
20260504034608 6 182 1.6 4.8 0.00 0.00 0.00 82 1015.6
20260504034111 6 360 1.6 4.8 0.00 0.00 0.00 82 1015.4
20260504033614 6 360 0.0 6.4 0.00 0.00 0.00 83 1015.4
20260504033116 6 360 3.2 6.4 0.00 0.00 0.00 82 1015.4
20260504032617 6 360 0.0 6.4 0.00 0.00 0.00 81 1015.3
20260504032006 6 360 1.6 6.4 0.00 0.00 0.00 80 1015.3
20260504031630 6 360 0.0 4.8 0.00 0.00 0.00 81 1015.3
20260504031106 6 360 0.0 4.8 0.00 0.00 0.00 79 1015.2
20260504030514 6 360 1.6 6.4 0.00 0.00 0.00 81 1015.2
20260504030114 6 360 1.6 6.4 0.00 0.00 0.00 80 1015.2
20260504025618 6 360 1.6 11.3 0.00 0.00 0.00 80 1015.1
20260504025115 6 360 1.6 4.8 0.00 0.00 0.00 78 1015.1
20260504024615 6 360 0.0 3.2 0.00 0.00 0.00 78 1015.1
20260504024121 6 360 0.0 0.0 0.00 0.00 0.00 77 1015.1
20260504023619 6 360 0.0 0.0 0.00 0.00 0.00 76 1015.1
20260504023120 6 360 0.0 0.0 0.00 0.00 0.00 76 1015.1
20260504022621 6 360 0.0 0.0 0.00 0.00 0.00 76 1015.0
20260504022122 6 360 0.0 0.0 0.00 0.00 0.00 76 1015.0
20260504021506 6 360 0.0 0.0 0.00 0.00 0.00 74 1015.0
20260504021106 7 360 0.0 0.0 0.00 0.00 0.00 73 1014.9
20260504020515 7 360 0.0 0.0 0.00 0.00 0.00 73 1014.9
20260504020115 7 360 0.0 0.0 0.00 0.00 0.00 72 1014.9
20260504015617 7 360 0.0 0.0 0.00 0.00 0.00 71 1014.7
20260504015118 7 360 0.0 0.0 0.00 0.00 0.00 70 1014.7
20260504014621 7 360 0.0 0.0 0.00 0.00 0.00 69 1014.7
20260504014008 7 360 0.0 0.0 0.00 0.00 0.00 69 1014.6
20260504013607 8 360 0.0 0.0 0.00 0.00 0.00 69 1014.6
20260504013113 8 360 0.0 0.0 0.00 0.00 0.00 70 1014.6
20260504012607 8 360 0.0 0.0 0.00 0.00 0.00 68 1014.6
20260504012110 8 360 0.0 0.0 0.00 0.00 0.00 67 1014.6
20260504011608 9 360 0.0 0.0 0.00 0.00 0.00 64 1014.6
20260504011110 9 360 0.0 0.0 0.00 0.00 0.00 63 1014.6
20260504010523 10 360 0.0 0.0 0.00 0.00 0.00 64 1014.6
20260504010003 10 360 0.0 0.0 0.00 0.00 0.00 62 1014.6
20260504005603 10 360 0.0 0.0 0.00 0.00 0.00 61 1014.5
20260504005106 10 360 0.0 0.0 0.00 0.00 0.00 60 1014.5
20260504004605 10 360 0.0 0.0 0.00 0.00 0.00 58 1014.5
20260504004107 10 360 0.0 0.0 0.00 0.00 0.00 58 1014.4
20260504003607 10 360 0.0 0.0 0.00 0.00 0.00 57 1014.4
20260504003114 11 360 0.0 0.0 0.00 0.00 0.00 54 1014.4
20260504002619 11 360 0.0 0.0 0.00 0.00 0.00 53 1014.4
20260504002118 11 360 0.0 6.4 0.00 0.00 0.00 54 1014.4
20260504001618 11 360 0.0 6.4 0.00 0.00 0.00 51 1014.4
20260504001120 12 360 0.0 3.2 0.00 0.00 0.00 52 1014.1
20260504000513 12 360 0.0 3.2 0.00 0.00 0.00 51 1014.1
20260504000113 12 360 0.0 3.2 0.00 0.00 0.00 51 1014.1
20260503235614 12 360 0.0 3.2 0.00 0.00 0.00 53 1014.1
20260503235117 12 360 0.0 3.2 0.00 0.00 0.00 49 1014.1
20260503234618 13 360 0.0 3.2 0.00 0.00 0.00 50 1014.1
20260503234120 13 360 0.0 3.2 0.00 0.00 0.00 51 1014.0
20260503233618 13 360 0.0 4.8 0.00 0.00 0.00 46 1014.0
20260503233119 13 360 0.0 8.0 0.00 0.00 0.00 45 1014.0
20260503232623 14 360 1.6 8.0 0.00 0.00 0.00 47 1013.9
20260503232004 14 316 1.6 8.0 0.00 0.00 0.00 45 1013.9
20260503231604 14 297 3.2 8.0 0.00 0.00 0.00 47 1013.9
20260503231109 15 322 1.6 11.3 0.00 0.00 0.00 42 1013.7
20260503230520 15 355 3.2 11.3 0.00 0.00 0.00 41 1013.7
20260503230008 15 313 3.2 12.9 0.00 0.00 0.00 40 1013.7
20260503225606 15 360 3.2 12.9 0.00 0.00 0.00 43 1013.8
20260503225105 15 355 3.2 9.7 0.00 0.00 0.00 40 1013.8
20260503224606 15 230 1.6 14.5 0.00 0.00 0.00 41 1013.8
20260503224106 15 48 3.2 14.5 0.00 0.00 0.00 42 1013.7
20260503223609 15 255 1.6 12.9 0.00 0.00 0.00 39 1013.7
20260503223109 15 342 3.2 17.7 0.00 0.00 0.00 38 1013.7
20260503222614 15 337 8.0 17.7 0.00 0.00 0.00 40 1013.7
20260503222115 15 355 4.8 9.7 0.00 0.00 0.00 40 1013.7
20260503221617 15 302 3.2 9.7 0.00 0.00 0.00 39 1013.7
20260503221117 15 242 3.2 20.9 0.00 0.00 0.00 38 1013.9
20260503220508 15 16 3.2 20.9 0.00 0.00 0.00 41 1013.9
20260503220107 15 223 6.4 12.9 0.00 0.00 0.00 38 1013.9
20260503215609 15 292 8.0 12.9 0.00 0.00 0.00 37 1014.0
20260503215116 15 348 6.4 12.9 0.00 0.00 0.00 40 1014.0
20260503214616 15 234 3.2 14.5 0.00 0.00 0.00 38 1014.0
20260503214023 16 246 4.8 9.7 0.00 0.00 0.00 39 1014.0
20260503213617 16 307 3.2 16.1 0.00 0.00 0.00 37 1014.0
20260503213135 16 300 8.0 16.1 0.00 0.00 0.00 36 1014.0
20260503212504 16 332 4.8 14.5 0.00 0.00 0.00 40 1014.0
20260503212103 16 314 4.8 14.5 0.00 0.00 0.00 38 1014.0
20260503211622 16 322 4.8 12.9 0.00 0.00 0.00 37 1014.0
20260503211104 16 194 3.2 14.5 0.00 0.00 0.00 37 1014.1
20260503210515 16 279 4.8 19.3 0.00 0.00 0.00 36 1014.1
20260503210115 16 316 6.4 19.3 0.00 0.00 0.00 37 1014.1
20260503205615 16 303 6.4 16.1 0.00 0.00 0.00 39 1014.2
20260503205117 16 244 8.0 16.1 0.00 0.00 0.00 42 1014.2
20260503204504 16 263 3.2 17.7 0.00 0.00 0.00 36 1014.2
20260503204103 16 242 8.0 17.7 0.00 0.00 0.00 37 1014.1
20260503203604 16 340 4.8 16.1 0.00 0.00 0.00 38 1014.1
20260503203116 16 11 11.3 16.1 0.00 0.00 0.00 38 1014.1
20260503202610 17 254 3.2 9.7 0.00 0.00 0.00 41 1014.3
20260503202112 16 211 4.8 9.7 0.00 0.00 0.00 38 1014.3
20260503201616 17 259 3.2 16.1 0.00 0.00 0.00 40 1014.3
20260503201116 17 355 6.4 16.1 0.00 0.00 0.00 38 1014.6
20260503200510 16 329 6.4 14.5 0.00 0.00 0.00 43 1014.6
20260503200113 16 325 1.6 17.7 0.00 0.00 0.00 42 1014.6
20260503195612 16 11 4.8 20.9 0.00 0.00 0.00 38 1014.9
20260503195118 16 244 3.2 20.9 0.00 0.00 0.00 38 1014.9
20260503194623 16 258 6.4 20.9 0.00 0.00 0.00 40 1014.9
20260503194124 16 273 8.0 22.5 0.00 0.00 0.00 42 1015.1
20260503193506 16 259 6.4 20.9 0.00 0.00 0.00 44 1015.1
20260503193104 16 319 4.8 20.9 0.00 0.00 0.00 44 1015.1
20260503192604 15 324 6.4 19.3 0.00 0.00 0.00 44 1015.2
20260503192104 15 221 8.0 19.3 0.00 0.00 0.00 42 1015.2
20260503191614 16 323 8.0 17.7 0.00 0.00 0.00 41 1015.2
20260503191112 15 276 3.2 19.3 0.00 0.00 0.00 43 1015.3
20260503190520 16 273 8.0 19.3 0.00 0.00 0.00 39 1015.3
20260503190119 16 30 3.2 22.5 0.00 0.00 0.00 40 1015.3
20260503185620 16 217 3.2 22.5 0.00 0.00 0.00 40 1015.6
20260503185121 16 313 6.4 24.1 0.00 0.00 0.00 40 1015.6
20260503184508 16 302 6.4 24.1 0.00 0.00 0.00 47 1015.6
20260503184107 15 224 6.4 12.9 0.00 0.00 0.00 42 1015.6
20260503183609 15 62 3.2 14.5 0.00 0.00 0.00 44 1015.6
20260503183112 15 293 4.8 17.7 0.00 0.00 0.00 46 1015.6
20260503182614 15 271 6.4 17.7 0.00 0.00 0.00 44 1015.8
20260503182117 14 355 4.8 16.1 0.00 0.00 0.00 46 1015.8
20260503181617 15 221 6.4 16.1 0.00 0.00 0.00 44 1015.8
20260503181122 15 355 4.8 14.5 0.00 0.00 0.00 44 1015.8
20260503180512 15 236 6.4 11.3 0.00 0.00 0.00 46 1015.8
20260503180111 15 360 4.8 20.9 0.00 0.00 0.00 44 1015.8
20260503175616 15 360 6.4 20.9 0.00 0.00 0.00 45 1016.2
20260503175113 14 360 4.8 19.3 0.00 0.00 0.00 47 1016.2
20260503174508 14 360 8.0 20.9 0.00 0.00 0.00 48 1016.2
20260503174103 14 360 8.0 20.9 0.00 0.00 0.00 44 1016.1
20260503173605 14 360 6.4 16.1 0.00 0.00 0.00 44 1016.1
20260503173132 14 360 6.4 19.3 0.00 0.00 0.00 45 1016.1
20260503172608 14 360 8.0 20.9 0.00 0.00 0.00 43 1016.3
20260503172108 14 360 8.0 20.9 0.00 0.00 0.00 48 1016.3
20260503171612 14 360 8.0 19.3 0.00 0.00 0.00 47 1016.3
20260503171112 13 360 4.8 19.3 0.00 0.00 0.00 43 1016.4
20260503170511 14 360 6.4 29.0 0.00 0.00 0.00 47 1016.4
20260503170108 14 360 9.7 29.0 0.00 0.00 0.00 45 1016.4